Location: Newark
(18.8198°N, 82.1672°E)
Time: 17:15:44
(UTC+00:00)

OTV 5 (USA 277) - Pass Details

Date: 21 August 2019
Orbit: 295 x 339 km, 54.5° (Epoch: 08 September)

Event Time Altitude Azimuth Distance (km) Brightness Sun altitude
Rises 14:06:56 0° 212° (SSW) 2,018 ? -17.2°
Reaches altitude 10° 14:08:53 10° 210° (SSW) 1,184 ? -17.6°
Enters shadow 14:10:16 27° 206° (SSW) 629 ? -17.9°
